Location: B?ogocice
(50.2413°N, 20.2361°E)
Time: 12:25:22
(UTC+00:00)

Cosmos 2123 Rocket - Pass Details

Date: 15 June 2024
Orbit: 961 x 991 km, 82.9° (Epoch: 15 July)

Event Time Altitude Azimuth Distance (km) Brightness Sun altitude
Rises 01:31:23 0° 349° (N) 3,658 7.6 -7.2°
Reaches altitude 10° 01:33:54 10° 349° (NNW) 2,708 6.9 -7.0°
Maximum altitude 01:40:06 81° 263° (W) 981 4.0 -6.3°
Drops below altitude 10° 01:46:17 10° 177° (S) 2,701 5.9 -5.7°
Sets 01:48:46 0° 176° (S) 3,648 6.6 -5.4°
